Погода в Межозерном

Россия / Санкт-Петербург и Ленинградская область     58°37′47″N   29°49′43″E
темп.,
°C
ветер,
м/с
пор.,
м/с
влажн.,
%
обл.,
%
осадки,
мм/ч
давл.,
гПа
погр.,
м
27 июля, вт
вт2700:00+17ююв22660 0.0 102023
03:00+16ююв12724 0.0 102113
06:00+16ююв12763 0.0 102030
09:00+23юв23495 0.0 1019400
12:00+27юв3336100 0.0 10191851
15:00+29юв3332100 0.0 10172095
18:00+27вюв3337100 0.0 10161796
21:00+21вюв2559100 0.0 101587
28 июля, ср
ср2800:00+19вюв2662100 0.0 1014103
03:00+17ююв2381100 0.6 101365
06:00+17ююв2292100 0.6 101266
09:00+18ююв2693100 0.8 1011239
12:00+20юв3681100 0.1 1010529
15:00+23ююв357095 0.3 10091093
18:00+22юз358712 3.0 1008511
21:00+19ююз229519 4.9 100728
29 июля, чт
чт2900:00+17юз229629 0.8 100745
03:00+16зюз28975 0.8 1006156
06:00+16зюз3897100 0.0 1006230
09:00+20зюз4783100 0.0 1006577
12:00+24зюз585250 0.0 10051578
15:00+26з684095 0.6 10042446
18:00+26зсз594262 0.0 10032203
21:00+21зюз38627 0.0 1003257
30 июля, пт
пт3000:00+18юз3107610 0.0 1004342
03:00+15юз3109149 0.0 1004268
06:00+15юз311905 0.0 1004401
09:00+20юз5105579 0.0 10031200
12:00+23юз6113982 0.0 10032098
15:00+22ююз5104685 0.0 10022221
18:00+16ю257819 0.4 1001130
21:00+18ююз38624 0.4 1000219
31 июля, сб
сб3100:00+17ююз512554 0.0 999683
03:00+16ююз51353100 0.0 9971019
06:00+16ююз6146266 0.0 9961114
09:00+18юз71467100 0.0 9961254
12:00+17юз6148289 0.6 9971201
15:00+19зюз61279100 1.5 9981188
18:00+17юз51191100 1.6 999973
21:00+16зюз4119183 3.4 999485